Regional Weather Roundup
Issued by NWS

Home | Current Version | Previous Version | Text Only | Print | Product List | Glossary On
Versions: 1 2 3 4 5 6 7 8 9 10 11 12 13 14 15 16 17 18 19 20 21 22 23 24 25 26 27 28 29 30 31 32 33 34 35 36 37 38 39 40 41 42 43 44 45 46 47 48 49 50
963
ASUS44 KLIX 010510
RWRLA
LOUISIANA WEATHER ROUNDUP
NATIONAL WEATHER SERVICE NEW ORLEANS LA
1200 AM CDT FRI AUG 01 2014

NOTE: "FAIR" INDICATES FEW OR NO CLOUDS BELOW 12,000 FEET WITH NO
      SIGNIFICANT WEATHER AND/OR OBSTRUCTIONS TO VISIBILITY.
      SKY/WX - SKY CONDITION AND SIGNIFICANT WEATHER.
      TMP - AIR TEMPERATURE.    DP   - DEWPOINT TEMPERATURE.
      RH  - RELATIVE HUMIDITY.  PRES - PRESSURE.
      HX  - HEAT INDEX.         WCI  - WIND CHILL INDEX.

*  THESE STATIONS ARE NOT NWS OR FAA STATIONS AND ARE NOT UNDER
   NWS QUALITY CONTROL.

LAZ040-048-061>063-065-066-069-010600-
SOUTHEAST LOUISIANA

CITY           SKY/WX    TMP DP  RH WIND       PRES   REMARKS
N.O. AUDUBON     N/A     81  70  68 MISG        N/A
N.O. INTL ARPT CLOUDY    80  69  69 E3        30.00F
N.O. LAKEFRONT CLOUDY    80  69  69 SE5       30.01S
N.O. DOWNTOWN* FAIR      82  66  57 S5        30.01S
SLIDELL        MOCLDY    75  69  81 CALM      30.01S
BATON ROUGE    CLOUDY    76  67  73 E6        30.00S
BOOTHVILLE     CLEAR     77  69  76 SE3       30.01S
BELLE CHASSE   MOCLDY    75  71  87 CALM      30.00F
BOGALUSA*      FAIR      73  68  85 CALM      30.03S
GALLIANO*      NOT AVBL
NEW ROADS*     FAIR      76  67  74 E5        30.00S
GONZALES*      MOCLDY    78  71  78 CALM      30.00S
HAMMOND*       CLOUDY    75  64  69 E6        30.02S
HOUMA*         MOCLDY    75  68  80 CALM      30.00F
PORT FOURCHON* PTCLDY    82  68  61 SE6       30.02S

$$

LAZ041-044-053-054-010600-
SOUTHWEST LOUISIANA

CITY           SKY/WX    TMP DP  RH WIND       PRES   REMARKS
LAKE CHARLES   LGT RAIN  79  76  90 S5        29.97R
LAFAYETTE      CLOUDY    79  73  82 CALM      29.99R
PATTERSON      MOCLDY    77  73  88 SE3       30.03S
SALT POINT       N/A     84  75  74 SE5       29.98F
NEW IBERIA     CLOUDY    78  73  84 SE5       29.99S
CHENAULT AIRPK CLOUDY    79  75  87 S6        29.97S

$$

LAZ027-028-010600-
CENTRAL LOUISIANA

CITY           SKY/WX    TMP DP  RH WIND       PRES   REMARKS
FORT POLK      MOCLDY    76  71  85 SE8       29.97F
ALEXANDRIA INT MOCLDY    77  70  79 SE8       29.97S
ALEXANDRIA     CLOUDY    75  70  84 E5        29.99F

$$

LAZ001-002-010600-
NORTHWEST LOUISIANA

CITY           SKY/WX    TMP DP  RH WIND       PRES   REMARKS
SHREVEPORT     LGT RAIN  69  67  93 E7        30.00R
BARKSDALE AFB  LGT RAIN  68  66  94 E8G18     30.00F
DTN SHREVEPORT LGT RAIN  68  65  90 E8        30.00S

$$

LAZ014-016-010600-
NORTHEAST LOUISIANA

CITY           SKY/WX    TMP DP  RH WIND       PRES   REMARKS
MONROE         CLOUDY    72  69  90 NE7       30.03S
TALLULAH       CLOUDY    74  68  81 NE6       30.03R

$$




USA.gov is the U.S. government's official web portal to all federal, state and local government web resources and services.